Zurück zum Katalog

BREEZE-M DEB

AktivHEO
NORAD 37204·DEBRIS·🇷🇺 Russia

Gestartet Mar 14, 2008 von Baikonur Cosmodrome

Loading…

Nächste Überflüge (nächste 24 Stunden)

TLE

AktuellSource: Space-Track

Epoche: Sep 13, 2026, 08:09 UTC

1 37204U 08011J   26256.33986427 -.00000368  00000-0 -83261-2 0  9990
2 37204  49.2987   0.1383 6388302 229.2626  70.4294  3.06527640 26581

Verfolge BREEZE-M DEB in Echtzeit mit AllMySat

Download on the App Store